Flag for Romania Weather past 2 weeks in Târgu Mureş, Romania

Now
72 °F

Scattered clouds.


Feels Like: 72 °F
Forecast: 59 / 85 °F
Wind: 7 mph from East

Location: Tirgu Mures Airport

Current Time: Jul 29, 2014 at 6:37:29 PM

Latest Report: Jul 29, 2014 at 6:00 PM


Visibility: N/A

Pressure: 29.92 "Hg

Humidity: 78%

Dew point: 64 °F

Location of Târgu MureşLocation

Historic Weather in Târgu Mureş — Graph

°F

Târgu Mureş temperature yesterday

Maximum temperature yesterday: 81 °F (at 1:30 PM)
Minimum temperature yesterday: 63 °F (at 1:00 AM)
Average temperature yesterday: 72 °F

Past Weeks' High & Low Weather Summary

 TemperatureHumidityPressure
High88 °F (Jul 21, 3:30 PM)100% (Jul 15, 3:00 AM)30.07 "Hg (Jul 15, 3:00 AM)
Low55 °F (Jul 17, 4:00 AM)27% (Jul 21, 8:00 PM)29.74 "Hg (Jul 23, 1:00 PM)
Average71 °F74%29.95 "Hg
* Reported Jul 14 5:00 PM — Jul 29 5:30 PM, Târgu Mureş, Weather by CustomWeather, © 2014

Note: Actual official high and low records may vary slightly from our data, if they occured in-between our weather recording intervals... More about our weather records

Advertising

Târgu Mureş weather history for previous 24 hours

 ConditionsComfort  
Time TempWeatherWind HumidityBarometerVisibility
5:30 PM
Jul 29
73 °FScattered clouds.9 mph74%29.92 "HgN/A
5:00 PM73 °FScattered clouds.7 mph74%29.92 "HgN/A
4:30 PM72 °FScattered clouds.7 mph83%29.92 "HgN/A
4:00 PM70 °FLight rain. Scattered clouds.7 mph88%29.95 "HgN/A
3:30 PM70 °FLight rain. Scattered clouds.2 mph83%29.95 "HgN/A
3:00 PM70 °FLight rain. Passing clouds.5 mph88%29.95 "HgN/A
2:30 PM70 °FLight rain. Passing clouds.7 mph83%29.95 "HgN/A
2:00 PM72 °FPassing clouds.7 mph78%29.95 "HgN/A
1:30 PM72 °FPassing clouds.2 mph73%29.95 "HgN/A
1:00 PM73 °FPassing clouds.5 mph69%29.92 "HgN/A
12:30 PM73 °FPassing clouds.2 mph69%29.92 "HgN/A
12:00 PM72 °FPassing clouds.2 mph73%29.92 "HgN/A
11:30 AM70 °FPassing clouds.2 mph78%29.92 "Hg6 mi
11:00 AM70 °FPassing clouds.2 mph78%29.92 "Hg5 mi
10:30 AM68 °FFog.2 mph88%29.92 "Hg2 mi
10:00 AM66 °FFog.5 mph94%29.92 "Hg2 mi
9:30 AM66 °FFog.2 mph94%29.92 "Hg2 mi
9:00 AM64 °FFog.5 mph100%29.92 "Hg2 mi
8:30 AM64 °FFog.5 mph100%29.92 "Hg2 mi
8:00 AM64 °FFog.2 mph94%29.92 "Hg2 mi
7:30 AM64 °FFog.2 mph94%29.92 "Hg3 mi
7:00 AM64 °FLight rain. Fog.5 mph94%29.92 "Hg3 mi
6:30 AM63 °FLight rain. Passing clouds.7 mph100%29.92 "Hg4 mi
5:30 AM63 °FLight rain. Passing clouds.2 mph100%29.92 "HgN/A
5:00 AM63 °FLight rain. Passing clouds.2 mph100%29.92 "HgN/A
4:00 AM64 °FSprinkles. Passing clouds.2 mph94%29.92 "HgN/A
3:00 AM64 °FSprinkles. Passing clouds.2 mph94%29.95 "HgN/A
2:00 AM64 °FPassing clouds.2 mph88%29.95 "HgN/A
1:00 AM64 °FPassing clouds.5 mph88%29.92 "HgN/A
11:00 PM
Jul 28
66 °FClear.No wind88%29.92 "Hg10 mi
10:00 PM68 °FClear.2 mph83%29.92 "Hg10 mi
9:00 PM70 °FPassing clouds.2 mph78%29.92 "HgN/A
8:30 PM72 °FPassing clouds.2 mph73%29.92 "HgN/A
8:00 PM75 °FPassing clouds.5 mph61%29.92 "HgN/A
7:30 PM77 °FPassing clouds.5 mph57%29.92 "HgN/A
7:00 PM79 °FPassing clouds.2 mph54%29.92 "HgN/A
6:30 PM79 °FPassing clouds.No wind51%29.92 "HgN/A
6:00 PM79 °FPassing clouds.5 mph54%29.92 "HgN/A
Weather by CustomWeather, © 2014

See weather overviewHow to use our weather pages